Location: Unspecified
(47.9110°N, 14.3980°E)
Time: 16:30:07
(UTC+00:00)

ALOS 2 - Pass Details

Date: 06 August 2020
Orbit: 630 x 632 km, 97.9° (Epoch: 25 September)

Event Time Altitude Azimuth Distance (km) Brightness Sun altitude
Exits shadow 21:45:40 36° 80° (E) 1,012 3.5 -23.1°
Maximum altitude 21:46:02 36° 68° (ENE) 1,000 3.6 -23.1°
Drops below altitude 10° 21:50:04 10° 2° (N) 2,026 6.1 -23.4°
Sets 21:52:24 0° 354° (N) 2,939 7.3 -23.5°
